• In Austria
  • List of Countries
  • For 7 days
  • Water Temperature
  • Satellite Maps
  • Weather Map
  • News
  • Weather Widgets
  • user-avatar
    Login

    Hourly Weather Salzburg

    Today, 25 February, Sunday

    Time Temperature Precipitation Wind Pressure Humidity
    00:00 -16°C° 0 mm 2 mps 620 mmHg 91%
    01:00 -18°C° 0 mm 2 mps 620 mmHg 92%
    02:00 -18°C° 0 mm 2 mps 620 mmHg 92%
    03:00 -19°C° 0 mm 2 mps 619 mmHg 92%
    04:00 -20°C° 0 mm 2 mps 619 mmHg 92%
    05:00 -20°C° 0 mm 2 mps 619 mmHg 92%
    06:00 -21°C° 0 mm 2 mps 619 mmHg 92%
    07:00 -23°C° 0 mm 2 mps 618 mmHg 92%
    08:00 -20°C° 0 mm 2 mps 619 mmHg 87%
    09:00 -18°C° 0 mm 2 mps 620 mmHg 83%
    10:00 -16°C° 0 mm 2 mps 620 mmHg 78%
    11:00 -16°C° 0 mm 2 mps 620 mmHg 76%
    12:00 -15°C° 0 mm 2 mps 620 mmHg 74%
    13:00 -14°C° 0 mm 2 mps 621 mmHg 72%
    14:00 -14°C° 0 mm 2 mps 620 mmHg 74%
    15:00 -14°C° 0 mm 2 mps 620 mmHg 77%
    16:00 -15°C° 0 mm 2 mps 620 mmHg 80%
    17:00 -16°C° 0.1 mm 2 mps 619 mmHg 84%
    18:00 -18°C° 0.1 mm 2 mps 619 mmHg 88%
    19:00 -17°C° 0.1 mm 1 mps 619 mmHg 92%
    20:00 -18°C° 0 mm 1 mps 618 mmHg 92%
    21:00 -19°C° 0 mm 1 mps 618 mmHg 93%
    22:00 -20°C° 0 mm 1 mps 618 mmHg 93%
    23:00 -20°C° 0 mm 1 mps 618 mmHg 93%

    Tomorrow, 26 February, Monday

    Time Temperature Precipitation Wind Pressure Humidity
    00:00 -21°C° 0 mm 1 mps 618 mmHg 93%
    01:00 -21°C° 0 mm 1 mps 617 mmHg 93%
    02:00 -22°C° 0 mm 1 mps 617 mmHg 93%
    03:00 -22°C° 0 mm 1 mps 617 mmHg 93%
    04:00 -23°C° 0 mm 1 mps 616 mmHg 93%
    05:00 -23°C° 0 mm 1 mps 616 mmHg 93%
    06:00 -24°C° 0 mm 1 mps 616 mmHg 93%
    07:00 -24°C° 0 mm 1 mps 616 mmHg 93%
    08:00 -25°C° 0 mm 2 mps 617 mmHg 89%
    09:00 -23°C° 0 mm 2 mps 617 mmHg 86%
    10:00 -20°C° 0 mm 2 mps 618 mmHg 82%
    11:00 -19°C° 0 mm 2 mps 618 mmHg 81%
    12:00 -18°C° 0 mm 2 mps 618 mmHg 79%
    13:00 -17°C° 0 mm 2 mps 618 mmHg 78%
    14:00 -17°C° 0.1 mm 2 mps 618 mmHg 79%
    15:00 -18°C° 0.1 mm 2 mps 617 mmHg 80%
    16:00 -18°C° 0.1 mm 2 mps 617 mmHg 81%
    17:00 -19°C° 0.1 mm 2 mps 617 mmHg 85%
    18:00 -20°C° 0.1 mm 2 mps 617 mmHg 88%
    19:00 -19°C° 0.1 mm 1 mps 617 mmHg 92%
    20:00 -19°C° 0.1 mm 1 mps 617 mmHg 92%
    21:00 -20°C° 0.1 mm 1 mps 616 mmHg 93%
    22:00 -20°C° 0.1 mm 1 mps 616 mmHg 93%
    23:00 -20°C° 0.1 mm 1 mps 616 mmHg 93%

    Day after tomorrow, 27 February, Tuesday

    Time Temperature Precipitation Wind Pressure Humidity
    00:00 -21°C° 0.1 mm 1 mps 616 mmHg 94%
    01:00 -21°C° 0.1 mm 1 mps 616 mmHg 94%
    02:00 -21°C° 0 mm 1 mps 615 mmHg 94%
    03:00 -21°C° 0 mm 1 mps 615 mmHg 93%
    04:00 -22°C° 0 mm 1 mps 615 mmHg 93%
    05:00 -22°C° 0.1 mm 1 mps 615 mmHg 93%
    06:00 -22°C° 0.1 mm 1 mps 615 mmHg 93%
    07:00 -22°C° 0.1 mm 1 mps 614 mmHg 93%
    08:00 -21°C° 0 mm 1 mps 615 mmHg 90%
    09:00 -19°C° 0 mm 1 mps 615 mmHg 86%
    10:00 -17°C° 0 mm 1 mps 616 mmHg 83%
    11:00 -16°C° 0.1 mm 1 mps 616 mmHg 81%
    12:00 -15°C° 0.1 mm 1 mps 616 mmHg 79%
    13:00 -14°C° 0.1 mm 1 mps 616 mmHg 76%
    14:00 -15°C° 0.1 mm 1 mps 616 mmHg 78%
    15:00 -15°C° 0.1 mm 1 mps 616 mmHg 79%
    16:00 -17°C° 0.1 mm 2 mps 616 mmHg 80%
    17:00 -16°C° 0.1 mm 1 mps 615 mmHg 84%
    18:00 -18°C° 0.1 mm 1 mps 615 mmHg 88%
    19:00 -19°C° 0.1 mm 1 mps 615 mmHg 92%
    20:00 -20°C° 0 mm 1 mps 615 mmHg 92%
    21:00 -20°C° 0 mm 1 mps 615 mmHg 93%
    22:00 -21°C° 0 mm 1 mps 615 mmHg 93%
    23:00 -22°C° 0 mm 1 mps 615 mmHg 92%

    28 February, Wednesday

    Time Temperature Precipitation Wind Pressure Humidity
    00:00 -22°C° 0 mm 1 mps 615 mmHg 91%
    01:00 -22°C° 0 mm 1 mps 615 mmHg 90%
    02:00 -22°C° 0 mm 1 mps 615 mmHg 89%
    03:00 -23°C° 0 mm 1 mps 615 mmHg 89%
    04:00 -23°C° 0 mm 1 mps 615 mmHg 88%
    05:00 -23°C° 0 mm 1 mps 615 mmHg 87%
    06:00 -23°C° 0 mm 1 mps 615 mmHg 87%
    07:00 -23°C° 0 mm 1 mps 616 mmHg 87%
    08:00 -20°C° 0 mm 1 mps 617 mmHg 82%
    09:00 -17°C° 0 mm 1 mps 618 mmHg 78%
    10:00 -15°C° 0 mm 1 mps 619 mmHg 73%
    11:00 -14°C° 0 mm 1 mps 619 mmHg 71%
    12:00 -12°C° 0 mm 1 mps 619 mmHg 68%
    13:00 -11°C° 0 mm 1 mps 620 mmHg 66%
    14:00 -11°C° 0 mm 1 mps 620 mmHg 69%
    15:00 -11°C° 0 mm 1 mps 619 mmHg 72%
    16:00 -13°C° 0 mm 2 mps 619 mmHg 75%
    17:00 -15°C° 0 mm 2 mps 619 mmHg 80%
    18:00 -17°C° 0 mm 2 mps 618 mmHg 85%
    19:00 -19°C° 0 mm 2 mps 618 mmHg 90%
    20:00 -19°C° 0 mm 2 mps 618 mmHg 89%
    21:00 -20°C° 0 mm 2 mps 618 mmHg 89%
    22:00 -20°C° 0 mm 2 mps 618 mmHg 88%
    23:00 -20°C° 0 mm 2 mps 618 mmHg 88%

    1 March, Thursday

    Time Temperature Precipitation Wind Pressure Humidity
    00:00 -20°C° 0 mm 2 mps 618 mmHg 87%
    01:00 -20°C° 0 mm 2 mps 617 mmHg 86%
    02:00 -20°C° 0 mm 2 mps 617 mmHg 85%
    03:00 -19°C° 0 mm 2 mps 617 mmHg 84%
    04:00 -19°C° 0 mm 2 mps 616 mmHg 83%
    05:00 -19°C° 0 mm 2 mps 616 mmHg 83%
    06:00 -18°C° 0 mm 2 mps 616 mmHg 82%
    07:00 -18°C° 0 mm 2 mps 616 mmHg 82%
    08:00 -16°C° 0 mm 2 mps 616 mmHg 80%
    09:00 -14°C° 0 mm 3 mps 617 mmHg 77%
    10:00 -12°C° 0 mm 3 mps 617 mmHg 75%
    11:00 -10°C° 0 mm 3 mps 617 mmHg 75%
    12:00 -8°C° 0 mm 3 mps 617 mmHg 76%
    13:00 -7°C° 0 mm 3 mps 617 mmHg 76%
    14:00 -7°C° 0 mm 3 mps 617 mmHg 78%
    15:00 -7°C° 0 mm 3 mps 616 mmHg 80%
    16:00 -6°C° 0 mm 2 mps 616 mmHg 81%
    17:00 -7°C° 0 mm 2 mps 616 mmHg 84%
    18:00 -8°C° 0 mm 2 mps 616 mmHg 87%
    19:00 -9°C° 0 mm 2 mps 615 mmHg 89%
    20:00 -9°C° 0 mm 2 mps 615 mmHg 89%
    21:00 -10°C° 0 mm 2 mps 615 mmHg 89%
    22:00 -10°C° 0 mm 2 mps 615 mmHg 89%
    23:00 -10°C° 0 mm 2 mps 615 mmHg 89%

    2 March, Friday

    Time Temperature Precipitation Wind Pressure Humidity
    00:00 -10°C° 0 mm 2 mps 614 mmHg 89%
    01:00 -10°C° 0 mm 2 mps 614 mmHg 89%
    02:00 -10°C° 0 mm 2 mps 613 mmHg 89%
    03:00 -10°C° 0 mm 2 mps 613 mmHg 89%
    04:00 -10°C° 0 mm 2 mps 613 mmHg 89%
    05:00 -10°C° 0 mm 2 mps 612 mmHg 90%
    06:00 -9°C° 0 mm 2 mps 612 mmHg 90%
    07:00 -9°C° 0 mm 2 mps 612 mmHg 90%
    08:00 -7°C° 0 mm 2 mps 613 mmHg 89%
    09:00 -5°C° 0 mm 2 mps 613 mmHg 89%
    10:00 -3°C° 0 mm 2 mps 614 mmHg 88%
    11:00 -2°C° 0 mm 2 mps 614 mmHg 89%
    12:00 -2°C° 0 mm 2 mps 614 mmHg 89%
    13:00 -1°C° 0 mm 2 mps 614 mmHg 90%
    14:00 -1°C° 0 mm 2 mps 614 mmHg 91%
    15:00 +1°C° 0 mm 1 mps 614 mmHg 92%
    16:00 +1°C° 0 mm 1 mps 614 mmHg 93%
    17:00 0°C° 0.2 mm 1 mps 614 mmHg 94%
    18:00 -2°C° 0.2 mm 0 mps 614 mmHg 95%
    19:00 -3°C° 0.2 mm 0 mps 614 mmHg 95%
    20:00 -3°C° 0.2 mm 0 mps 614 mmHg 95%
    21:00 -2°C° 0.2 mm 1 mps 614 mmHg 95%
    22:00 -2°C° 0.2 mm 1 mps 614 mmHg 94%
    23:00 -2°C° 0.2 mm 1 mps 614 mmHg 94%
    Show more